Strasburg, ND

7:20 AM CDT on October 01, 2016 (GMT -0500)
Linton Municipal Airport

Weather History for K7L2 - March, 2014

Change the Weather History Date:

Saturday, March 22, 2014

  Actual Average (KBIS) Record (KBIS)
Temperature  
Mean Temperature 16 °F 33 °F  
Max Temperature 24 °F 44 °F 81 °F (1910)
Min Temperature 8 °F 22 °F -18 °F (1899)
Degree Days  
Heating Degree Days 49 32  
Month to date heating degree days 818  
Since 1 July heating degree days 7249  
Cooling Degree Days 0 0  
Month to date cooling degree days 0  
Year to date cooling degree days 0  
Moisture  
Dew Point 6 °F    
Average Humidity 64    
Maximum Humidity 92    
Minimum Humidity 36    
Precipitation  
Precipitation 0.13 in 0.03 in 0.97 in (1931)
Month to date precipitation 0.58  
Year to date precipitation 1.52  
Snow  
Snow 0.00 in 0.30 in 8.00 in (1893)
Month to date snowfall 6.8  
Since 1 July snowfall 44.3  
Snow Depth -    
Sea Level Pressure  
Sea Level Pressure 30.46 in    
Wind  
Wind Speed 11 mph (NNW)    
Max Wind Speed 16 mph    
Max Gust Speed 22 mph    
Visibility 10 miles    
Events Snow    
T = Trace of Precipitation, MM = Missing Value Source: NWS Daily Summary

Daily Weather History Graph

Daily Weather History Graph

Search for Another Location

Airport or City:

Trip Planner

Search our weather history database for the weather conditions in past years. The results will help you decide how hot, cold, wet, or windy it might be!

Date:

Astronomy

Mar. 22, 2014 Rise Set
Actual Time 7:40 AM CDT 7:56 PM CDT
Civil Twilight 7:10 AM CDT 8:26 PM CDT
Nautical Twilight 6:34 AM CDT 9:01 PM CDT
Astronomical Twilight 5:58 AM CDT 9:38 PM CDT
Moon 1:33 AM CDT (3/22) 11:08 AM CDT (3/22)
Length of Visible Light 13h 16m
Length of Day
12h 16m
Waning Gibbous, 65% of the Moon is Illuminated
Mar 22
Waning Gibbous
Mar 23
Last Quarter
Mar 30
New
Apr 7
First Quarter
Apr 15
Full

Hourly Weather History & Observations

Time (CDT) Temp. Windchill Dew Point Humidity Pressure Visibility Wind Dir Wind Speed Gust Speed Precip Events Conditions
12:15 AM 17.6 °F 3.7 °F 10.4 °F 73% 30.39 in 10.0 mi North 13.8 mph - N/A Snow Light Snow
12:35 AM 17.6 °F 5.0 °F 8.6 °F 68% 30.40 in 10.0 mi North 11.5 mph - N/A   Overcast
12:55 AM 17.6 °F 5.0 °F 10.4 °F 73% 30.40 in 10.0 mi North 11.5 mph - N/A   Overcast
1:15 AM 17.6 °F 5.7 °F 10.4 °F 73% 30.40 in 10.0 mi North 10.4 mph - N/A   Overcast
1:35 AM 17.6 °F 5.7 °F 10.4 °F 73% 30.40 in 9.0 mi North 10.4 mph - N/A Snow Light Snow
1:55 AM 15.8 °F 2.1 °F 10.4 °F 79% 30.40 in 7.0 mi North 12.7 mph - N/A Snow Light Snow
2:15 AM 15.8 °F 0.3 °F 8.6 °F 73% 30.41 in 10.0 mi North 16.1 mph - N/A Snow Light Snow
2:35 AM 15.8 °F 0.9 °F 6.8 °F 68% 30.41 in 10.0 mi North 15.0 mph - N/A   Overcast
2:55 AM 15.8 °F 0.9 °F 5.0 °F 62% 30.42 in 10.0 mi North 15.0 mph 18.4 mph N/A   Overcast
3:15 AM 14.0 °F -0.2 °F 5.0 °F 67% 30.42 in 10.0 mi North 12.7 mph - N/A   Overcast
3:35 AM 14.0 °F 1.2 °F 6.8 °F 73% 30.42 in 10.0 mi NNE 10.4 mph - N/A   Overcast
3:55 AM 14.0 °F 0.5 °F 5.0 °F 67% 30.42 in 10.0 mi North 11.5 mph - N/A   Mostly Cloudy
4:15 AM 14.0 °F 2.0 °F 6.8 °F 73% 30.42 in 10.0 mi North 9.2 mph - N/A   Mostly Cloudy
4:35 AM 14.0 °F 2.0 °F 6.8 °F 73% 30.42 in 10.0 mi NNE 9.2 mph - N/A   Overcast
4:55 AM 14.0 °F 1.2 °F 6.8 °F 73% 30.42 in 10.0 mi North 10.4 mph - N/A   Overcast
5:15 AM 14.0 °F 2.0 °F 6.8 °F 73% 30.43 in 10.0 mi North 9.2 mph - N/A   Overcast
5:35 AM 14.0 °F 3.9 °F 6.8 °F 73% 30.43 in 10.0 mi North 6.9 mph - N/A   Overcast
5:55 AM 14.0 °F 2.9 °F 6.8 °F 73% 30.43 in 10.0 mi North 8.1 mph - N/A   Overcast
6:15 AM 14.0 °F 1.2 °F 6.8 °F 73% 30.44 in 10.0 mi North 10.4 mph - N/A   Overcast
6:35 AM 14.0 °F 1.2 °F 6.8 °F 73% 30.44 in 10.0 mi North 10.4 mph - N/A Snow Light Snow
6:55 AM 12.2 °F 1.7 °F 6.8 °F 79% 30.44 in 10.0 mi North 6.9 mph - N/A   Overcast
7:15 AM 12.2 °F -0.2 °F 8.6 °F 85% 30.45 in 5.0 mi NNW 9.2 mph - 0.01 in Snow Light Snow
7:35 AM 10.4 °F -2.4 °F 8.6 °F 92% 30.46 in 5.0 mi North 9.2 mph - 0.03 in Snow Light Snow
7:55 AM 10.4 °F -2.4 °F 8.6 °F 92% 30.46 in 5.0 mi NW 9.2 mph - 0.04 in Snow Light Snow
8:15 AM 10.4 °F -3.3 °F 8.6 °F 92% 30.47 in 3.0 mi NNW 10.4 mph - 0.01 in Snow Light Snow
8:35 AM 10.4 °F -3.3 °F 8.6 °F 92% 30.47 in 4.0 mi NNW 10.4 mph - 0.04 in Snow Light Snow
8:55 AM 10.4 °F -4.8 °F 8.6 °F 92% 30.48 in 2.5 mi NNW 12.7 mph - 0.09 in Snow Light Snow
9:15 AM 8.6 °F -6.3 °F 5.0 °F 85% 30.48 in 10.0 mi NNW 11.5 mph - N/A   Mostly Cloudy
9:35 AM 10.4 °F -4.8 °F 5.0 °F 79% 30.49 in 10.0 mi North 12.7 mph - N/A   Partly Cloudy
9:55 AM 10.4 °F -5.4 °F 5.0 °F 79% 30.49 in 10.0 mi NNW 13.8 mph 17.3 mph N/A   Partly Cloudy
10:15 AM 12.2 °F -1.0 °F 5.0 °F 73% 30.50 in 10.0 mi NNW 10.4 mph - N/A   Partly Cloudy
10:35 AM 14.0 °F 0.5 °F 5.0 °F 67% 30.50 in 10.0 mi North 11.5 mph 16.1 mph N/A   Clear
10:55 AM 14.0 °F 0.5 °F 5.0 °F 67% 30.51 in 10.0 mi NNW 11.5 mph 18.4 mph N/A   Partly Cloudy
11:15 AM 14.0 °F 1.2 °F 6.8 °F 73% 30.51 in 10.0 mi NW 10.4 mph 19.6 mph N/A   Scattered Clouds
11:35 AM 15.8 °F 2.1 °F 5.0 °F 62% 30.51 in 10.0 mi NNW 12.7 mph 17.3 mph N/A   Partly Cloudy
11:55 AM 15.8 °F 1.4 °F 5.0 °F 62% 30.51 in 10.0 mi NW 13.8 mph - N/A   Partly Cloudy
12:15 PM 17.6 °F 7.3 °F 5.0 °F 58% 30.50 in 10.0 mi NW 8.1 mph 16.1 mph N/A   Partly Cloudy
12:35 PM 17.6 °F 5.7 °F 5.0 °F 58% 30.50 in 10.0 mi NW 10.4 mph 17.3 mph N/A   Partly Cloudy
12:55 PM 17.6 °F 4.3 °F 3.2 °F 53% 30.49 in 10.0 mi North 12.7 mph 18.4 mph N/A   Clear
1:15 PM 19.4 °F 5.5 °F 1.4 °F 46% 30.49 in 10.0 mi NNW 15.0 mph 20.7 mph N/A   Clear
1:35 PM 19.4 °F 6.6 °F 1.4 °F 46% 30.49 in 10.0 mi North 12.7 mph 18.4 mph N/A   Clear
1:55 PM 19.4 °F 6.0 °F 3.2 °F 49% 30.48 in 10.0 mi NW 13.8 mph 18.4 mph N/A   Clear
2:15 PM 19.4 °F 6.0 °F 3.2 °F 49% 30.48 in 10.0 mi North 13.8 mph 21.9 mph N/A   Clear
2:35 PM 21.2 °F 9.5 °F 3.2 °F 46% 30.47 in 10.0 mi NNW 11.5 mph 20.7 mph N/A   Clear
2:55 PM 23.0 °F 12.4 °F 5.0 °F 46% 30.47 in 10.0 mi NNW 10.4 mph - N/A   Clear
3:15 PM 23.0 °F 13.9 °F 3.2 °F 43% 30.47 in 10.0 mi NW 8.1 mph 17.3 mph N/A   Clear
3:35 PM 23.0 °F 15.8 °F 3.2 °F 43% 30.46 in 10.0 mi North 5.8 mph 21.9 mph N/A   Scattered Clouds
3:55 PM 23.0 °F 10.1 °F 3.2 °F 43% 30.46 in 10.0 mi NNW 15.0 mph 19.6 mph N/A   Partly Cloudy
4:15 PM 23.0 °F 13.1 °F 1.4 °F 39% 30.46 in 10.0 mi NNW 9.2 mph 17.3 mph N/A   Partly Cloudy
4:35 PM 23.0 °F 11.1 °F 1.4 °F 39% 30.46 in 10.0 mi NW 12.7 mph - N/A   Clear
4:55 PM 24.8 °F 13.4 °F 1.4 °F 36% 30.46 in 10.0 mi NW 12.7 mph 17.3 mph N/A   Clear
5:15 PM 24.8 °F 14.0 °F 1.4 °F 36% 30.46 in 10.0 mi NNW 11.5 mph 21.9 mph N/A   Clear
5:35 PM 24.8 °F 13.4 °F 1.4 °F 36% 30.45 in 10.0 mi NW 12.7 mph 16.1 mph N/A   Clear
5:55 PM 23.0 °F 14.7 °F 1.4 °F 39% 30.45 in 10.0 mi North 6.9 mph - N/A   Clear
6:15 PM 23.0 °F 11.1 °F 1.4 °F 39% 30.45 in 10.0 mi NNW 12.7 mph - N/A   Clear
6:35 PM 23.0 °F 10.6 °F 1.4 °F 39% 30.46 in 10.0 mi NW 13.8 mph - N/A   Clear
6:55 PM 23.0 °F 10.1 °F 1.4 °F 39% 30.46 in 10.0 mi NNW 15.0 mph 18.4 mph N/A   Clear
7:15 PM 21.2 °F 9.5 °F 1.4 °F 42% 30.46 in 10.0 mi NW 11.5 mph - N/A   Clear
7:35 PM 21.2 °F 10.1 °F 1.4 °F 42% 30.46 in 10.0 mi NNW 10.4 mph - N/A   Clear
7:55 PM 19.4 °F 10.4 °F 3.2 °F 49% 30.46 in 10.0 mi NNW 6.9 mph - N/A   Clear
8:15 PM 17.6 °F 9.3 °F 5.0 °F 58% 30.46 in 10.0 mi NNW 5.8 mph - N/A   Clear
8:35 PM 17.6 °F 9.3 °F 5.0 °F 58% 30.47 in 10.0 mi NNW 5.8 mph - N/A   Clear
8:55 PM 15.8 °F 10.2 °F 6.8 °F 68% 30.47 in 10.0 mi NNW 3.5 mph - N/A   Clear
9:15 PM 15.8 °F 7.2 °F 6.8 °F 68% 30.47 in 10.0 mi North 5.8 mph - N/A   Clear
9:35 PM 15.8 °F 8.6 °F 6.8 °F 68% 30.47 in 10.0 mi NNE 4.6 mph - N/A   Clear
9:55 PM 15.8 °F 10.2 °F 6.8 °F 68% 30.48 in 10.0 mi NNE 3.5 mph - N/A   Clear
10:15 PM 15.8 °F 8.6 °F 8.6 °F 73% 30.48 in 10.0 mi NNE 4.6 mph - N/A   Clear
10:35 PM 15.8 °F 10.2 °F 6.8 °F 68% 30.48 in 10.0 mi NNE 3.5 mph - N/A   Clear
10:55 PM 14.0 °F 8.2 °F 6.8 °F 73% 30.48 in 10.0 mi NE 3.5 mph - N/A   Clear
11:15 PM 14.0 °F - 8.6 °F 79% 30.48 in 10.0 mi Calm Calm - N/A   Clear
11:35 PM 12.2 °F - 8.6 °F 85% 30.48 in 10.0 mi Calm Calm - N/A   Clear
11:55 PM 12.2 °F - 8.6 °F 85% 30.48 in 10.0 mi Calm Calm - N/A   Clear